Regional Weather Roundup
Issued by NWS

Home | Current Version | Previous Version | Graphics & Text | Print | Product List | Glossary On
Versions: 1 2 3 4 5 6 7 8 9 10 11 12 13 14 15 16 17 18 19 20 21 22 23 24 25 26 27 28 29 30 31 32 33 34 35 36 37 38 39 40 41 42 43 44 45 46 47 48 49 50
000
ASUS43 KLOT 251908
RWRIL

ILLINOIS REGIONAL WEATHER ROUNDUP
NATIONAL WEATHER SERVICE CHICAGO/ROMEOVILLE IL
200 PM CDT SAT MAR 25 2017

NOTE: "FAIR" INDICATES FEW OR NO CLOUDS BELOW 12,000 FEET WITH NO
SIGNIFICANT WEATHER AND/OR OBSTRUCTIONS TO VISIBILITY.

* THESE STATIONS ARE NOT UNDER NWS QUALITY CONTROL. THEY ALSO MAY NOT
  REPORT WEATHER SUCH AS PRECIPITATION OR FOG.

ILZ001-002-007-009-015-016-024-252000-
NORTHWEST ILLINOIS

CITY           SKY/WX    TMP DP  RH WIND       PRES   REMARKS
MOLINE         CLOUDY    48  46  93 E12       29.91F
STERLING*      CLOUDY    48  46  93 E17G26    29.94F
SAVANNA*       DRIZZLE   43  42  93 NE21      29.96S
$$

ILZ003-004-008-010-011-017-018-252000-
NORTH CENTRAL ILLINOIS

CITY           SKY/WX    TMP DP  RH WIND       PRES   REMARKS
ROCKFORD       CLOUDY    45  41  86 NE15G23   30.01F
FREEPORT*      CLOUDY    41  40  96 E18G25    30.01F
ROCHELLE*      CLOUDY    46  45  94 E15G21    29.98F
DE KALB*       CLOUDY    44  43  97 E21       29.99F
PERU*          CLOUDY    51  48  90 E17       29.94F
$$

ILZ005-006-012>014-019>023-252000-
NORTHEAST ILLINOIS

CITY           SKY/WX    TMP DP  RH WIND       PRES   REMARKS
CHICAGO-OHARE  CLOUDY    43  41  93 NE12      30.01F FOG
CHICAGO-MIDWAY CLOUDY    48  46  93 N8        30.00F FOG
AURORA         CLOUDY    45  43  93 NE17      29.98F FOG
LANSING*       CLOUDY    48  48  99 N5        29.99F FOG
JOLIET*        CLOUDY    50  49  93 NE9       29.98F FOG
WAUKEGAN       CLOUDY    38  38 100 NE12G18   30.05F FOG     WCI  30
DUPAGE AIRPORT FOG       43  43 100 NE14      30.00F VSB 3/4
KANKAKEE*      CLOUDY    66  56  71 S5        29.96S
WHEELING       CLOUDY    40  40 100 NE12G20   30.04F
MORRIS*        CLOUDY    50  48  92 NE6       29.96F FOG
ROMEOVILLE*    CLOUDY    47  47 100 NE12      29.98F FOG
NORTHERLY ISL    N/A     42  41  96 N8          N/A
$$

LMZ740>746-252000-
SOUTHERN LAKE MICHIGAN

STATION/POSITION SKY/WX   TEMP    WIND        PRES    VSBY  WAVE
                          AIR SEA DIR/SP/G                  HT/PER
                          (F)     (DEG/KT/KT) (MB)    (MI)  (FT/S)
HARRISON CRIB                      10/  7/  7   N/A
BURNHAM HARBOR                    350/  7/ 12   N/A
CALUMET HARBOR                    340/  8/ 10 1015.2F
BURNS HARBOR               41     310/  2/  3 1015.9F
MICHIGAN CITY              60      70/ 11/ 13   N/A
$$

ILZ025>027-034>036-040-047-049-050-058-095>099-252000-
WEST-CENTRAL ILLINOIS

CITY           SKY/WX    TMP DP  RH WIND       PRES   REMARKS
QUINCY         CLOUDY    61  53  75 S14G21    29.85R
GALESBURG*     PTSUNNY   62  55  78 E3        29.87F
MACOMB*        CLOUDY    64  55  75 SE12      29.88S
JACKSONVILLE*  CLOUDY    60  55  85 S6        29.88F
PITTSFIELD*    CLOUDY    60  56  88 SE9       29.87F
$$

ILZ028>032-037-038-041>044-048-051>054-059>061-252000-
CENTRAL ILLINOIS

CITY           SKY/WX    TMP DP  RH WIND       PRES   REMARKS
PONTIAC        LGT RAIN  61  59  94 S14       29.95F
BLOOMINGTON    LGT RAIN  57  55  94 S12       29.94S FOG
DECATUR        CLOUDY    67  52  58 S16       29.90F
PEORIA         CLOUDY    63  55  75 S14       29.90S
LACON*         CLOUDY    62  55  78 SE13      29.91S
LINCOLN*       CLOUDY    61  58  91 S6        29.91F
SPRINGFIELD    CLOUDY    62  56  80 S10       29.90F
TAYLORVILLE    CLOUDY    64  55  72 S10G18    29.89F
$$

ILZ033-039-045-046-055>057-062-063-252000-
EAST-CENTRAL ILLINOIS

CITY           SKY/WX    TMP DP  RH WIND       PRES   REMARKS
CHAMPAIGN      CLOUDY    68  52  56 S23G30    29.92F
RANTOUL*       RAIN      65  56  70 S17       29.94S
MATTOON        PTSUNNY   68  54  60 S17G32    29.91F
PARIS*         CLOUDY    69  54  58 S18       29.95F
$$

ILZ079-100>102-252000-
SOUTHWEST ILLINOIS

CITY           SKY/WX    TMP DP  RH WIND       PRES   REMARKS
ALTON          CLOUDY    61  55  82 SE12      29.88F
BELLEVILLE     LGT RAIN  62  61  95 S12       29.86F
CAHOKIA*       LGT RAIN  63  57  81 S9        29.85F
SPARTA*        DRIZZLE   61  56  83 S9        29.90F
$$

ILZ064>066-069>071-074>076-080>082-084>086-088>090-092>094-252000-
SOUTH-CENTRAL ILLINOIS

CITY           SKY/WX    TMP DP  RH WIND       PRES   REMARKS
CARBONDALE     RAIN      62  58  86 S15G24    29.90F FOG
CAIRO*         CLOUDY    62  58  87 S13       29.92F
EFFINGHAM*     CLOUDY    67  56  66 SE12G24   29.94S
MARION         LGT RAIN  64  61  88 S16G25    29.93R
MT. VERNON     CLOUDY    66  55  67 S16       29.92S
CENTRALIA*     CLOUDY    65  57  74 S17G23    29.90F
SALEM*         CLOUDY    66  55  66 S17G26    29.91S
METROPOLIS*    CLOUDY    65  57  75 S9        29.94F
$$

ILZ067-068-072-073-078-083-087-091-252000-
SOUTHEAST ILLINOIS

CITY           SKY/WX    TMP DP  RH WIND       PRES   REMARKS
LAWRENCEVILLE  CLOUDY    72  52  49 S24G33    29.95F
FLORA*         CLOUDY    68  56  65 S17       29.93S
FAIRFIELD*     CLOUDY    67  55  65 S9        29.92F
HARRISBURG*    LGT RAIN  66  57  73 S21       29.94S
ROBINSON*      CLOUDY    70  53  54 S21       29.95S
CARMI*         CLOUDY    70  56  59 S21       29.93F
$$

ABBREVIATIONS USED IN REMARKS
   TC - TEMPERATURE IN CELSIUS
  WCI - WIND CHILL INDEX
   HX - HEAT INDEX
  VSB - VISIBILITY
$$




USA.gov is the U.S. government's official web portal to all federal, state and local government web resources and services.